Stations météo

réclame
Mon MeteoGroup
Ronchi Dei Legionari, Italie (16108): Température de l'air & dewpoint: 11.12.2018 20:00:00 - 17.12.2018 20:00:00 (CET)Ronchi Dei Legionari, Italie (16108): Vitesse du vent: 11.12.2018 20:00:00 - 17.12.2018 20:00:00 (CET)Ronchi Dei Legionari, Italie (16108): Direction du vent: 11.12.2018 20:00:00 - 17.12.2018 20:00:00 (CET)Ronchi Dei Legionari, Italie (16108): reduced air pressure: 11.12.2018 20:00:00 - 17.12.2018 20:00:00 (CET)Ronchi Dei Legionari, Italie (16108): visibility: 11.12.2018 20:00:00 - 17.12.2018 20:00:00 (CET)Ronchi Dei Legionari, Italie (16108): Quantités de précipitations: 11.12.2018 20:00:00 - 17.12.2018 20:00:00 (CET)
Date & Time tt [°C] td [°C] ff [km/h] ff [knt] dd ppp [hPa] vv [km] rr [mm]
17.12.2018 20:00:00 2,0 -2,0 5 3 N - 10 -
17.12.2018 19:00:00 0,5 -2,8 4 2 NNW 1024,7 10 -
17.12.2018 18:00:00 4,0 -2,0 4 2 - - 10 -
17.12.2018 17:00:00 4,0 -2,0 13 7 ESE - 10 -
17.12.2018 16:00:00 6,9 -1,6 13 7 ESE 1021,7 10 0,0
17.12.2018 15:00:00 9,0 -1,0 4 2 - - 10 -
17.12.2018 14:00:00 9,0 -2,0 8 4 WSW - 10 -
17.12.2018 13:00:00 8,5 -2,6 4 2 - 1019,9 10 -
17.12.2018 12:00:00 8,0 -3,0 11 6 ESE - 10 -
17.12.2018 11:00:00 7,0 -1,0 8 4 NE - 10 -
17.12.2018 10:00:00 4,8 -0,6 9 5 NNE 1019,6 10 0,0
17.12.2018 09:00:00 2,0 -1,0 5 3 N - 10 -
17.12.2018 08:00:00 2,0 -1,0 5 3 N - 10 -
17.12.2018 07:00:00 2,7 -0,7 5 3 N 1017,8 10 -
17.12.2018 06:00:00 3,0 -1,0 4 2 NNE - 10 -
17.12.2018 05:00:00 3,0 -1,0 8 4 NNE - 10 -
17.12.2018 04:00:00 2,7 -0,7 8 4 N 1017,2 10 0,0
17.12.2018 03:00:00 2,0 -1,0 4 2 N - 10 -
17.12.2018 02:00:00 3,0 -1,0 8 4 N - 10 -
17.12.2018 01:00:00 3,0 -1,0 5 3 NNE 1018,0 10 -
17.12.2018 00:00:00 3,0 -1,0 5 3 N - 10 -
16.12.2018 23:00:00 3,0 -1,0 5 3 NNE - 10 -
16.12.2018 22:00:00 2,5 -0,9 4 2 NE 1018,7 10 0,0
16.12.2018 21:00:00 3,0 -1,0 5 3 NNE - 10 -
16.12.2018 20:00:00 2,0 -1,0 4 2 N - 10 -
16.12.2018 19:00:00 2,0 -1,6 2 1 NNE 1019,0 10 -
16.12.2018 18:00:00 3,0 -2,0 5 3 N - 10 -
16.12.2018 17:00:00 3,0 -2,0 8 4 N - 10 -
16.12.2018 16:00:00 5,0 -2,1 5 3 NE 1018,5 10 0,0
16.12.2018 15:00:00 6,0 -2,0 9 5 N - 10 -
16.12.2018 14:00:00 6,0 -3,0 5 3 NNW - 10 -
16.12.2018 13:00:00 4,8 -2,8 4 2 N 1019,6 10 -
16.12.2018 12:00:00 4,0 -2,0 4 2 - - 10 -
16.12.2018 11:00:00 3,0 -4,0 4 2 - - 10 -
16.12.2018 10:00:00 1,0 -4,0 2 1 - 1020,7 10 0,0
16.12.2018 09:00:00 -1,0 -5,0 5 3 ENE - 10 -
16.12.2018 08:00:00 -1,0 -5,0 4 2 E - 10 -
16.12.2018 07:00:00 -1,9 -5,5 2 1 - 1020,1 10 -
16.12.2018 06:00:00 -2,0 -5,0 5 3 NE - 10 -
16.12.2018 05:00:00 -3,0 -6,0 5 3 NNE - 10 -
16.12.2018 04:00:00 -2,8 -5,8 5 3 NNE 1020,2 10 0,0
16.12.2018 03:00:00 -4,0 -6,0 4 2 NE - 10 -
16.12.2018 02:00:00 -4,0 -5,0 5 3 NNE - 10 -
16.12.2018 01:00:00 -3,6 -4,8 5 3 N 1020,8 10 -
16.12.2018 00:00:00 -3,0 -5,0 8 4 N - 10 -
15.12.2018 23:00:00 -4,0 -5,0 4 2 N - 10 -
15.12.2018 22:00:00 -3,3 -4,9 4 2 NNW 1021,1 10 0,0
15.12.2018 21:00:00 -2,0 -5,0 4 2 - - 10 -
15.12.2018 20:00:00 -1,0 -5,0 5 3 E - 10 -
15.12.2018 19:00:00 -0,1 -4,6 2 1 - 1020,9 10 -
15.12.2018 18:00:00 1,0 -3,0 4 2 E - 10 -
15.12.2018 17:00:00 4,0 -3,0 5 3 WSW - 10 -
15.12.2018 16:00:00 5,4 -6,0 5 3 NW 1019,8 10 0,0
15.12.2018 15:00:00 6,0 -5,0 8 4 NW - 10 -
15.12.2018 14:00:00 6,0 -6,0 9 5 NW - 10 -
15.12.2018 13:00:00 6,2 -4,4 8 4 NW 1019,6 10 -
15.12.2018 12:00:00 6,0 -5,0 8 4 NNW - 10 -
15.12.2018 11:00:00 3,0 -4,0 8 4 N - 10 -
15.12.2018 10:00:00 2,2 -4,2 2 1 - 1020,6 10 0,0
15.12.2018 09:00:00 -2,0 -5,0 5 3 WNW - 10 -
15.12.2018 08:00:00 -3,0 -5,0 8 4 NNW - 10 -
15.12.2018 07:00:00 -2,6 -5,3 4 2 NW 1019,3 10 -
15.12.2018 06:00:00 -1,0 -5,0 8 4 NNE - 10 -
15.12.2018 05:00:00 -1,0 -6,0 5 3 E - 10 -
15.12.2018 04:00:00 1,3 -5,6 5 3 WNW 1018,5 10 0,0
15.12.2018 03:00:00 1,0 -5,0 8 4 ENE - 10 -
15.12.2018 02:00:00 1,0 -6,0 9 5 NE - 10 -
15.12.2018 01:00:00 1,1 -5,5 9 5 NNE 1018,1 10 -
15.12.2018 00:00:00 0,0 -5,0 9 5 N - 10 -
14.12.2018 23:00:00 2,0 -5,0 11 6 NNE - 10 -
14.12.2018 22:00:00 1,8 -5,1 8 4 NNE 1018,4 10 0,0
14.12.2018 21:00:00 3,0 -5,0 15 8 NNE - 10 -
14.12.2018 20:00:00 4,0 -5,0 18 10 ENE - 10 -
14.12.2018 19:00:00 3,4 -5,3 15 8 NE 1017,6 10 -
14.12.2018 18:00:00 4,0 -5,0 24 13 ENE - 10 -
14.12.2018 17:00:00 5,0 -6,0 21 11 ENE - 10 -
14.12.2018 16:00:00 5,2 -5,8 21 11 ENE 1016,2 10 0,0
14.12.2018 15:00:00 6,0 -6,0 35 19 E - 10 -
14.12.2018 14:00:00 6,0 -6,0 34 18 E - 10 -
14.12.2018 13:00:00 6,2 -5,0 29 16 E 1015,9 10 -
14.12.2018 12:00:00 6,0 -4,0 28 15 E - 10 -
14.12.2018 11:00:00 6,0 -4,0 24 13 E - 10 -
14.12.2018 10:00:00 5,0 -4,1 18 10 E 1016,4 10 0,0
14.12.2018 09:00:00 4,0 -4,0 21 11 ENE - 10 -
14.12.2018 08:00:00 4,0 -54,0 26 14 E - 10 -
14.12.2018 07:00:00 4,2 -3,1 22 12 E 1015,0 10 -
14.12.2018 06:00:00 4,0 -3,0 22 12 E - 10 -
14.12.2018 05:00:00 4,0 -3,0 24 13 E - 10 -
14.12.2018 04:00:00 4,3 -2,9 21 11 E 1015,3 10 0,0
14.12.2018 03:00:00 5,0 -3,0 21 11 E - 10 -
14.12.2018 02:00:00 5,0 -3,0 15 8 E - 10 -
14.12.2018 01:00:00 4,6 -3,7 5 3 - 1015,6 10 -
14.12.2018 00:00:00 5,0 -4,0 18 10 ENE - 10 -
13.12.2018 23:00:00 4,0 -4,0 5 3 NE - 10 -
13.12.2018 22:00:00 5,0 -4,4 22 12 E 1015,8 10 0,0
13.12.2018 21:00:00 5,0 -4,0 22 12 E - 10 -
13.12.2018 20:00:00 5,0 -4,0 24 13 E - 10 -
13.12.2018 19:00:00 4,7 -3,7 24 13 E 1016,1 10 -
13.12.2018 18:00:00 4,0 -2,0 22 12 ENE - 10 -
13.12.2018 17:00:00 5,0 -3,0 28 15 E - 10 -
13.12.2018 16:00:00 5,3 -3,6 18 10 E 1016,1 10 0,0
13.12.2018 15:00:00 6,0 -4,0 22 12 E - 10 -
13.12.2018 14:00:00 6,0 -3,0 18 10 E - 10 -
13.12.2018 13:00:00 6,4 -2,9 18 10 E 1016,4 10 -
13.12.2018 12:00:00 7,0 -3,0 22 12 E - 10 -
13.12.2018 11:00:00 6,0 -4,0 18 10 E - 10 -
13.12.2018 10:00:00 5,4 -3,6 22 12 E 1017,4 10 0,0
13.12.2018 09:00:00 5,0 -4,0 16 9 E - 10 -
13.12.2018 08:00:00 5,0 -4,0 13 7 ENE - 10 -
13.12.2018 07:00:00 3,0 -3,6 8 4 N 1017,0 10 -
13.12.2018 06:00:00 2,0 -4,0 8 4 N - 10 -
13.12.2018 05:00:00 1,0 -6,0 4 2 - - 10 -
13.12.2018 04:00:00 0,0 -5,3 2 1 - 1017,9 10 0,0
13.12.2018 03:00:00 1,0 -5,0 5 3 N - 10 -
13.12.2018 02:00:00 -2,0 -5,0 5 3 NNE - 10 -
13.12.2018 01:00:00 -0,5 -3,7 5 3 NNE 1019,1 10 -
13.12.2018 00:00:00 0,0 -3,0 5 3 NE - 10 -
12.12.2018 23:00:00 -1,0 -3,0 5 3 NE - 10 -
12.12.2018 22:00:00 -0,8 -4,3 5 3 NE 1019,4 10 0,0
12.12.2018 21:00:00 1,0 -6,0 5 3 ENE - 10 -
12.12.2018 20:00:00 -1,0 -5,0 4 2 NNE - 10 -
12.12.2018 19:00:00 0,8 -4,4 4 2 - 1019,3 10 -
12.12.2018 18:00:00 3,0 -4,0 8 4 N - 10 -
12.12.2018 17:00:00 5,0 -5,0 4 2 WNW - 10 -
12.12.2018 16:00:00 9,1 -5,9 5 3 WNW 1018,8 10 0,0
12.12.2018 15:00:00 10,0 -6,0 4 2 - - 10 -
12.12.2018 14:00:00 10,0 -7,0 4 2 - - 10 -
12.12.2018 13:00:00 9,6 -4,4 5 3 SSW 1019,4 10 -
12.12.2018 12:00:00 8,0 -4,0 4 2 - - 10 -
12.12.2018 11:00:00 5,0 -4,0 5 3 NNW - 10 -
12.12.2018 10:00:00 2,7 -3,9 5 3 N 1020,3 10 0,0
12.12.2018 09:00:00 -2,0 -4,0 5 3 N - 10 -
12.12.2018 08:00:00 -4,0 -6,0 2 1 - - 10 -
12.12.2018 07:00:00 -3,2 -5,9 5 3 E 1019,4 10 -
12.12.2018 06:00:00 -4,0 -6,0 4 2 NNE - 10 -
12.12.2018 05:00:00 -2,0 -5,0 8 4 N - 10 -
12.12.2018 04:00:00 -2,5 -5,0 5 3 NNE 1019,4 10 0,0
12.12.2018 03:00:00 -3,0 -5,0 4 2 NW - 10 -
12.12.2018 02:00:00 -2,0 -5,0 8 4 ENE - 10 -
12.12.2018 01:00:00 -1,7 -3,4 5 3 N 1019,0 10 -
12.12.2018 00:00:00 -1,0 -4,0 4 2 - - 10 -
11.12.2018 23:00:00 -2,0 -3,0 4 2 - - 10 -
11.12.2018 22:00:00 -3,1 -5,5 4 2 - 1019,2 10 0,0
11.12.2018 21:00:00 -1,0 -2,0 4 2 N - 10 -
11.12.2018 20:00:00 0,0 -2,0 2 1 - - 10 -

tt = Température de l'air
td = dewpoint
ff = Vitesse du vent
dd = Direction du vent
ppp = reduced air pressure
vv = visibility
rr = Quantités de précipitations

stations d'obs. à proximité